Weather History for K9L2 - September, 2013

Change the Weather History Date:

Tuesday, September 17, 2013

  Actual Average (KEDW) Record (KEDW)
Temperature  
Mean Temperature 76 °F -  
Max Temperature 91 °F 89 °F 104 °F (2000)
Min Temperature 61 °F 55 °F 42 °F (2006)
Cooling Degree Days 11    
Growing Degree Days 26 (Base 50)    
Moisture  
Dew Point 29 °F    
Average Humidity 22    
Maximum Humidity 41    
Minimum Humidity 4    
Precipitation  
Precipitation 0.00 in - - ()
Sea Level Pressure  
Sea Level Pressure 29.73 in    
Wind  
Wind Speed 11 mph (WSW)    
Max Wind Speed 25 mph    
Max Gust Speed 32 mph    
Visibility 10 miles    
Events      
Averages and records for this station are not official NWS values.
T = Trace of Precipitation, MM = Missing Value Source: NWS Daily Summary

Daily Weather History Graph

Daily Weather History Graph

Search for Another Location

Airport or City:

Trip Planner

Search our weather history database for the weather conditions in past years. The results will help you decide how hot, cold, wet, or windy it might be!

Date:

Astronomy

Sep. 17, 2013 Rise Set
Actual Time 6:36 AM PDT 6:54 PM PDT
Civil Twilight 6:10 AM PDT 7:20 PM PDT
Nautical Twilight 5:41 AM PDT 7:49 PM PDT
Astronomical Twilight 5:10 AM PDT 8:19 PM PDT
Moon 5:43 PM PDT (9/17) 4:39 AM PDT (9/17)
Length of Visible Light 13h 09m
Length of Day
12h 18m
Waxing Gibbous, 96% of the Moon is Illuminated
Sep 17
Waxing Gibbous
Sep 19
Full
Sep 26
Last Quarter
Oct 4
New
Oct 11
First Quarter

Hourly Weather History & Observations

Time (PDT) Temp. Dew Point Humidity Pressure Visibility Wind Dir Wind Speed Gust Speed Precip Events Conditions
12:55 AM 75.0 °F 26.1 °F 16% 29.76 in 10.0 mi WSW 11.5 mph - N/A   Clear
1:55 AM 69.1 °F 26.1 °F 20% 29.76 in 10.0 mi NW 3.5 mph - N/A   Clear
2:55 AM 66.9 °F 27.0 °F 22% 29.76 in 10.0 mi Calm Calm - N/A   Clear
3:55 AM 66.9 °F 28.0 °F 23% 29.75 in 10.0 mi Variable 5.8 mph - N/A   Clear
4:55 AM 64.9 °F 30.0 °F 27% 29.76 in 10.0 mi SW 5.8 mph - N/A   Clear
5:55 AM 64.0 °F 28.0 °F 26% 29.76 in 10.0 mi ESE 5.8 mph - N/A   Clear
6:55 AM 61.0 °F 28.9 °F 30% 29.78 in 10.0 mi SSE 5.8 mph - N/A   Clear
7:55 AM 64.9 °F 30.9 °F 28% 29.79 in 10.0 mi South 5.8 mph - N/A   Clear
8:55 AM 70.0 °F 36.0 °F 29% 29.78 in 10.0 mi South 5.8 mph - N/A   Clear
9:55 AM 82.9 °F 24.1 °F 12% 29.75 in 10.0 mi SW 16.1 mph - N/A   Clear
10:55 AM 87.1 °F 19.0 °F 8% 29.74 in 10.0 mi WSW 16.1 mph 26.5 mph N/A   Clear
11:55 AM 89.1 °F 16.0 °F 7% 29.72 in 10.0 mi WSW 19.6 mph 27.6 mph N/A   Clear
12:55 PM 91.0 °F 10.0 °F 5% 29.70 in 10.0 mi SW 19.6 mph 31.1 mph N/A   Clear
1:55 PM 91.0 °F 7.0 °F 4% 29.69 in 10.0 mi WSW 21.9 mph 27.6 mph N/A   Clear
2:55 PM 91.9 °F 14.0 °F 6% 29.66 in 10.0 mi SW 19.6 mph 28.8 mph N/A   Clear
3:55 PM 91.0 °F 21.0 °F 8% 29.65 in 10.0 mi SW 23.0 mph 29.9 mph N/A   Clear
4:55 PM 88.0 °F 36.0 °F 16% 29.66 in 10.0 mi West 18.4 mph 26.5 mph N/A   Clear
5:55 PM 82.0 °F 41.0 °F 23% 29.68 in 10.0 mi West 25.3 mph 32.2 mph N/A   Clear
6:55 PM 77.0 °F 43.0 °F 30% 29.70 in 10.0 mi West 18.4 mph - N/A   Clear
7:55 PM 73.9 °F 46.0 °F 37% 29.72 in 10.0 mi West 18.4 mph 27.6 mph N/A   Clear
8:55 PM 72.0 °F 46.0 °F 40% 29.74 in 10.0 mi West 17.3 mph 29.9 mph N/A   Clear
9:55 PM 71.1 °F 46.0 °F 41% 29.74 in 10.0 mi West 16.1 mph - N/A   Clear
10:55 PM 71.1 °F 45.0 °F 39% 29.73 in 10.0 mi West 20.7 mph 27.6 mph N/A   Clear